Location: Asheville, NC
(35.6000°N, 82.5500°W)
Time: 13:45:52
(UTC-04:00)

Vanguard 3 - Pass Details

Date: 13 March 2018
Orbit: 508 x 3264 km, 33.3° (Epoch: 18 June)

Event Time Altitude Azimuth Distance (km) Brightness Sun altitude
Rises 09:43:07 0° 239° (WSW) 7,163 11.6 22.8°
Reaches altitude 10° 09:47:57 10° 237° (WSW) 6,195 11.4 23.7°
Maximum altitude 10:07:31 67° 161° (SSE) 3,002 10.8 27.4°
Drops below altitude 10° 10:21:08 10° 83° (E) 4,515 11.9 29.8°
Sets 10:24:03 0° 80° (E) 5,207 12.0 30.4°
